| time (UTC) | temp C | wind direction | speed KPH | gust KPH | rain 1hr cm | rain 24hr cm | rain mn cm | humidity % | barometer mb |
| 20260502151528 | 11 | 209 | 3.2 | 6.4 | 0.00 | 0.00 | 0.00 | 46 | 1019.1 |
| 20260502123008 | 2 | 243 | 0.0 | 8.0 | 0.00 | 0.00 | 0.00 | 67 | 1019.4 |
| 20260502121524 | 1 | 243 | 6.4 | 11.3 | 0.00 | 0.00 | 0.00 | 70 | 1019.3 |
| 20260502114506 | 1 | 243 | 1.6 | 11.3 | 0.00 | 0.00 | 0.00 | 71 | 1019.1 |
| 20260502113002 | 1 | 243 | 3.2 | 6.4 | 0.00 | 0.00 | 0.00 | 70 | 1019.2 |
| 20260502111623 | 1 | 243 | 0.0 | 4.8 | 0.00 | 0.00 | 0.00 | 71 | 1019.3 |
| 20260502110059 | 2 | 243 | 4.8 | 6.4 | 0.00 | 0.00 | 0.00 | 70 | 1019.5 |
| 20260502104659 | 2 | 243 | 4.8 | 6.4 | 0.00 | 0.00 | 0.00 | 72 | 1019.5 |
| 20260502103108 | 1 | 243 | 3.2 | 6.4 | 0.00 | 0.00 | 0.00 | 75 | 1019.5 |
| 20260502101609 | 2 | 243 | 3.2 | 4.8 | 0.00 | 0.00 | 0.00 | 71 | 1019.5 |
| 20260502071529 | 6 | 243 | 3.2 | 4.8 | 0.00 | 0.00 | 0.00 | 56 | 1019.8 |
| 20260502070026 | 6 | 243 | 0.0 | 1.6 | 0.00 | 0.00 | 0.00 | 54 | 1019.9 |
| 20260502064523 | 6 | 243 | 0.0 | 1.6 | 0.00 | 0.00 | 0.00 | 53 | 1019.7 |
| 20260502063028 | 6 | 243 | 1.6 | 8.0 | 0.00 | 0.00 | 0.00 | 53 | 1019.7 |
| 20260502061520 | 6 | 248 | 6.4 | 8.0 | 0.00 | 0.00 | 0.00 | 54 | 1019.6 |
| 20260502060020 | 6 | 248 | 0.0 | 0.0 | 0.00 | 0.00 | 0.00 | 54 | 1019.5 |
| 20260502054524 | 7 | 248 | 0.0 | 3.2 | 0.00 | 0.00 | 0.00 | 51 | 1019.5 |
| 20260502053015 | 7 | 248 | 4.8 | 8.0 | 0.00 | 0.00 | 0.00 | 49 | 1019.5 |
| 20260502051514 | 8 | 248 | 3.2 | 6.4 | 0.00 | 0.00 | 0.00 | 49 | 1019.4 |
| 20260502050014 | 8 | 248 | 3.2 | 6.4 | 0.00 | 0.00 | 0.00 | 50 | 1019.4 |
| 20260502044515 | 8 | 248 | 1.6 | 4.8 | 0.00 | 0.00 | 0.00 | 50 | 1019.4 |
| 20260502043014 | 8 | 248 | 1.6 | 6.4 | 0.00 | 0.00 | 0.00 | 51 | 1019.4 |
| 20260502041515 | 8 | 251 | 4.8 | 6.4 | 0.00 | 0.00 | 0.00 | 53 | 1019.4 |
| 20260502040013 | 8 | 260 | 0.0 | 11.3 | 0.00 | 0.00 | 0.00 | 53 | 1019.3 |
| 20260502034513 | 8 | 349 | 6.4 | 8.0 | 0.00 | 0.00 | 0.00 | 55 | 1019.1 |
| 20260502033013 | 10 | 348 | 1.6 | 3.2 | 0.00 | 0.00 | 0.00 | 50 | 1019.1 |
| 20260502031513 | 12 | 348 | 1.6 | 6.4 | 0.00 | 0.00 | 0.00 | 45 | 1019.0 |
| 20260502030011 | 12 | 348 | 6.4 | 8.0 | 0.00 | 0.00 | 0.00 | 37 | 1018.9 |
| 20260502024510 | 13 | 348 | 1.6 | 6.4 | 0.00 | 0.00 | 0.00 | 32 | 1018.7 |
| 20260502023010 | 13 | 348 | 3.2 | 6.4 | 0.00 | 0.00 | 0.00 | 31 | 1018.6 |
| 20260502021514 | 16 | 349 | 1.6 | 6.4 | 0.00 | 0.00 | 0.00 | 26 | 1018.4 |
| 20260502020008 | 17 | 348 | 3.2 | 8.0 | 0.00 | 0.00 | 0.00 | 22 | 1018.4 |
| 20260502014514 | 18 | 348 | 4.8 | 8.0 | 0.00 | 0.00 | 0.00 | 21 | 1018.3 |
| 20260502013007 | 18 | 348 | 6.4 | 12.9 | 0.00 | 0.00 | 0.00 | 21 | 1018.4 |
| 20260502011506 | 19 | 331 | 6.4 | 14.5 | 0.00 | 0.00 | 0.00 | 21 | 1018.4 |
| 20260502010008 | 19 | 313 | 8.0 | 16.1 | 0.00 | 0.00 | 0.00 | 20 | 1018.5 |
| 20260502004506 | 20 | 292 | 4.8 | 16.1 | 0.00 | 0.00 | 0.00 | 20 | 1018.6 |
| 20260502003006 | 20 | 347 | 11.3 | 19.3 | 0.00 | 0.00 | 0.00 | 19 | 1018.7 |
| 20260502001502 | 19 | 281 | 9.7 | 20.9 | 0.00 | 0.00 | 0.00 | 19 | 1018.6 |
| 20260502000002 | 20 | 360 | 4.8 | 17.7 | 0.00 | 0.00 | 0.00 | 18 | 1018.7 |
| 20260501234503 | 20 | 350 | 14.5 | 22.5 | 0.00 | 0.00 | 0.00 | 18 | 1018.7 |
| 20260501233001 | 20 | 19 | 4.8 | 16.1 | 0.00 | 0.00 | 0.00 | 18 | 1018.8 |
| 20260501231606 | 20 | 355 | 12.9 | 24.1 | 0.00 | 0.00 | 0.00 | 19 | 1018.7 |
| 20260501224558 | 20 | 33 | 6.4 | 16.1 | 0.00 | 0.00 | 0.00 | 18 | 1019.0 |
| 20260501223106 | 20 | 19 | 8.0 | 25.7 | 0.00 | 0.00 | 0.00 | 18 | 1019.2 |
| 20260501221554 | 19 | 63 | 8.0 | 16.1 | 0.00 | 0.00 | 0.00 | 19 | 1019.2 |
| 20260501220058 | 19 | 306 | 11.3 | 22.5 | 0.00 | 0.00 | 0.00 | 21 | 1019.5 |
| 20260501214551 | 19 | 331 | 4.8 | 19.3 | 0.00 | 0.00 | 0.00 | 20 | 1019.5 |
| 20260501213106 | 19 | 309 | 1.6 | 16.1 | 0.00 | 0.00 | 0.00 | 22 | 1019.8 |
| 20260501211546 | 19 | 271 | 9.7 | 17.7 | 0.00 | 0.00 | 0.00 | 22 | 1020.0 |
| 20260501210045 | 19 | 67 | 8.0 | 24.1 | 0.00 | 0.00 | 0.00 | 22 | 1020.2 |
| 20260501204547 | 19 | 15 | 17.7 | 24.1 | 0.00 | 0.00 | 0.00 | 22 | 1020.3 |
| 20260501203041 | 18 | 349 | 4.8 | 17.7 | 0.00 | 0.00 | 0.00 | 24 | 1020.4 |
| 20260501201538 | 18 | 326 | 11.3 | 20.9 | 0.00 | 0.00 | 0.00 | 25 | 1020.5 |
| 20260501200036 | 17 | 279 | 9.7 | 22.5 | 0.00 | 0.00 | 0.00 | 26 | 1020.7 |
| 20260501194540 | 18 | 350 | 4.8 | 27.4 | 0.00 | 0.00 | 0.00 | 25 | 1020.9 |
| 20260501193033 | 17 | 19 | 14.5 | 22.5 | 0.00 | 0.00 | 0.00 | 26 | 1021.0 |
| 20260501191533 | 17 | 24 | 12.9 | 24.1 | 0.00 | 0.00 | 0.00 | 26 | 1021.2 |
| 20260501190029 | 17 | 311 | 12.9 | 25.7 | 0.00 | 0.00 | 0.00 | 27 | 1021.4 |
| 20260501184527 | 16 | 36 | 8.0 | 24.1 | 0.00 | 0.00 | 0.00 | 28 | 1021.5 |
| 20260501183025 | 16 | 321 | 14.5 | 22.5 | 0.00 | 0.00 | 0.00 | 29 | 1021.7 |
| 20260501181522 | 16 | 343 | 4.8 | 27.4 | 0.00 | 0.00 | 0.00 | 29 | 1021.8 |
| 20260501180029 | 15 | 197 | 1.6 | 12.9 | 0.00 | 0.00 | 0.00 | 33 | 1022.0 |
| 20260501174522 | 15 | 355 | 3.2 | 12.9 | 0.00 | 0.00 | 0.00 | 33 | 1022.2 |
| 20260501173016 | 14 | 133 | 0.0 | 14.5 | 0.00 | 0.00 | 0.00 | 34 | 1022.4 |
| 20260501171512 | 13 | 167 | 4.8 | 11.3 | 0.00 | 0.00 | 0.00 | 35 | 1022.5 |
| 20260501170010 | 12 | 202 | 0.0 | 8.0 | 0.00 | 0.00 | 0.00 | 35 | 1022.8 |
| 20260501164513 | 12 | 209 | 3.2 | 9.7 | 0.00 | 0.00 | 0.00 | 40 | 1023.0 |
| 20260501163008 | 12 | 215 | 1.6 | 6.4 | 0.00 | 0.00 | 0.00 | 41 | 1023.1 |
| 20260501161500 | 11 | 216 | 1.6 | 6.4 | 0.00 | 0.00 | 0.00 | 43 | 1023.2 |